Find DSCS III B-8

NORAD ID: 26052 Int'l Des: 2000-001 Owner: AFSMC/DISA Country: US operational
HEOCIRCULAR

Live Position

Loading 3D Globe...

About DSCS III B-8

Description loading...

Upcoming Passes

Passes for default location (London). Set your location on the main map for personalized predictions.

Altitude History

Loading altitude history...

Two-Line Element Set

1 26052U 00001A 26105.23322163 .00000071 00000-0 00000-0 0 9990
2 26052 11.8048 32.9238 0005550 13.9064 115.4699 0.99109211 32297
Epoch: Apr 15, 2026 • Age: 7 hours

Current Status

Altitude 36134.0 km
Velocity 3.06 km/s
Sub-Earth Point -10.00°S, 126.93°W
Launch Date Jan 21, 2000
Age 26.2 years
Type other

Technical Details

Classification Payload
Mass 1232.00 kg
Dry Mass 900.00 kg
Total Mass 1232.00 kg
Length 2.10 m
Diameter 1.90 m
Span 9.50 m
Shape Box + 2 Pan
Manufacturer LMVF
Bus Type DSCS III
Phase Status Unknown Transfer Status
Owner/State AFSMC/DISA/US

Most Searched